Temperature
21 22 23 23 23 23 22 21 20 20 19 19 18 18 18 19 19 18 18 18 18 18 18 18 18 18 18 18 18 17 17 17 17 17 17 17 17 17 17 17 17 17 17 16
21 22 22 23 23 23 22 22 21 20 19 18 18 18 17 17 18 18 18 18 18 18 18 18 18 18 17 17 17 17 17 17 17 17 17 17 17 17 17 17 17 16 16 16
19 21 21 20 21 21 21 20 20 19 18 17 17 16 16 17 17 17 17 17 18 18 18 18 18 18 17 17 17 17 17 17 17 17 17 17 17 17 16 16 16 16 16 16
17 19 20 19 20 21 20 19 19 18 17 17 16 16 16 17 17 17 17 17 17 17 17 17 17 17 17 17 17 17 17 17 17 17 16 16 16 16 16 16 16 16 16 16
16 18 19 19 20 19 18 17 18 17 16 16 16 16 16 16 17 17 17 17 17 17 17 17 17 17 17 17 17 16 16 16 16 16 16 16 16 16 16 16 16 15 15 15
16 18 18 18 19 19 18 17 17 17 16 16 16 15 15 15 16 16 16 16 16 16 17 17 17 17 17 16 16 16 16 16 16 16 16 16 16 15 15 15 15 15 15 15
16 17 17 17 18 19 18 16 16 16 16 16 15 14 15 15 15 15 15 16 16 16 16 16 16 16 16 16 15 15 15 16 16 16 15 15 15 15 15 15 15 14 14 14
15 16 16 16 17 16 15 16 16 16 16 15 14 14 14 14 14 15 15 15 15 15 15 15 15 15 15 15 15 15 15 15 15 15 15 15 15 14 14 14 14 14 14 14
14 14 14 15 15 16 16 15 15 15 15 15 14 14 14 14 14 14 14 14 14 14 14 14 15 15 15 14 14 15 15 15 14 14 14 14 14 14 14 14 14 13 13 13
14 14 14 14 15 15 15 15 15 15 15 15 14 13 13 13 13 13 13 13 14 14 14 14 14 14 14 14 14 14 14 14 14 14 14 13 13 13 13 13 13 13 12 12
14 13 13 14 14 14 14 14 14 14 14 14 13 13 13 13 12 12 12 13 13 13 13 13 13 13 13 13 14 14 13 13 13 13 13 13 13 12 12 12 12 12 12 11
13 13 12 12 13 13 14 14 14 13 13 13 13 13 12 12 12 12 12 12 12 12 12 12 13 13 13 13 13 13 13 13 13 13 13 12 12 12 12 11 11 11 11 11
14 14 13 12 12 13 13 13 13 13 13 12 12 12 12 11 11 11 11 12 12 12 12 12 12 12 12 13 13 13 13 12 12 12 12 12 12 12 11 11 11 10 10 10
14 13 12 12 12 12 12 12 12 12 12 12 11 11 11 11 11 11 11 11 11 11 11 12 12 12 12 12 12 12 12 12 12 12 11 11 11 11 11 11 10 10 9 9
13 14 13 12 12 12 12 12 12 11 11 11 11 11 11 11 11 10 10 11 11 11 11 11 11 11 11 12 12 12 12 12 11 11 11 11 11 10 10 10 10 9 9 9
13 12 12 12 11 11 11 11 11 11 11 11 11 11 11 11 10 10 10 10 10 10 10 11 11 11 11 11 11 11 11 11 11 11 11 10 10 10 10 9 9 9 9 8
12 11 11 11 11 11 11 11 11 11 11 11 11 11 10 10 10 10 10 10 10 10 10 10 10 10 10 11 11 11 11 10 10 10 10 10 10 9 9 9 9 8 8 7
13 13 12 12 12 11 11 11 11 11 11 11 11 10 10 10 10 10 10 10 10 10 10 10 10 10 10 10 10 10 10 10 10 9 9 9 9 8 8 8 8 8 7 7
13 12 12 12 12 12 12 11 11 11 11 11 11 10 10 10 10 10 10 10 9 9 9 9 9 9 9 9 9 9 9 9 9 9 8 8 8 8 7 7 7 7 7 6
12 12 12 12 12 12 11 11 11 11 11 11 10 10 10 9 9 9 9 9 9 8 8 9 9 9 9 9 9 9 8 8 8 8 8 7 7 7 7 6 6 6 6 6
12 12 12 12 11 11 11 11 11 11 11 10 10 10 9 9 9 9 9 8 8 8 8 8 8 8 8 8 8 8 8 7 7 7 7 7 6 6 6 6 5 5 5 5
11 11 11 11 11 11 11 11 11 11 10 10 10 9 9 9 9 9 8 8 8 7 8 8 8 7 7 7 7 7 7 7 6 6 6 6 6 5 5 5 5 4 4 4
11 11 11 11 11 11 10 10 10 10 10 10 9 9 9 9 8 8 8 7 7 7 7 7 7 7 7 7 7 6 6 6 6 6 5 5 5 5 4 4 4 4 4 4
11 11 11 11 10 10 10 10 10 10 9 9 9 9 9 8 8 8 7 7 7 7 6 6 6 6 6 6 6 6 5 5 5 5 5 4 4 4 4 4 4 3 3 3
10 10 10 10 10 10 10 9 9 9 9 8 8 8 8 8 7 7 7 6 6 6 6 6 6 6 6 5 5 5 5 4 4 4 4 4 4 4 3 3 3 3 3 3
10 10 10 10 10 9 9 9 9 8 8 8 8 7 7 7 7 6 6 6 6 6 6 5 5 5 5 5 5 4 4 4 4 4 4 3 3 3 3 3 3 3 3 3
9 9 9 9 9 9 9 9 8 8 8 7 7 7 6 6 6 6 6 6 5 5 5 5 5 5 4 4 4 4 4 4 4 3 3 3 3 3 3 3 3 3 3 2
Wind_Speed
3 2 2 0 1 1 2 5 6 6 7 8 8 6 4 4 5 6 5 5 6 6 6 5 5 5 6 6 6 7 7 6 6 6 6 6 6 6 6 6 6 6 6 5
3 3 3 2 1 1 1 1 4 6 2 2 4 6 6 5 5 6 4 5 6 6 5 5 5 5 5 6 6 6 6 6 5 5 6 6 7 7 6 6 5 5 5 5
1 2 4 2 2 1 2 2 5 5 4 5 6 5 4 4 4 4 3 4 5 5 4 4 5 5 5 6 6 6 6 6 5 6 5 5 6 6 6 6 5 5 4 5
2 4 1 5 1 6 8 6 5 7 8 7 7 5 4 4 4 5 4 4 4 4 5 3 2 3 5 5 6 7 6 6 6 6 5 5 5 5 5 5 5 5 4 4
3 2 3 2 2 2 4 3 4 9 9 8 7 7 6 5 5 5 4 4 4 4 5 4 4 4 6 6 6 6 5 4 4 5 5 5 6 5 4 5 5 4 4 4
4 4 5 3 2 0 6 2 1 6 9 7 4 3 0 2 4 5 5 5 5 5 6 6 4 4 7 7 7 6 5 5 5 5 6 6 5 5 4 5 5 5 5 4
4 3 3 3 4 2 4 5 2 4 5 4 3 3 3 3 5 5 6 6 7 7 7 6 5 7 9 8 7 5 5 7 7 6 6 5 6 6 6 6 6 6 6 5
3 3 5 3 2 2 3 2 4 4 5 6 7 7 6 6 6 7 7 7 7 8 8 6 6 8 9 8 5 6 7 8 8 8 7 8 8 7 7 7 8 6 7 6
4 4 1 2 3 1 3 4 4 4 6 8 9 9 8 7 7 7 8 8 8 9 9 8 7 8 10 7 6 8 10 10 10 10 9 8 9 8 7 7 7 6 6 6
3 2 3 5 6 5 4 4 4 6 7 9 11 10 10 9 8 8 8 8 8 9 10 9 8 8 8 7 8 10 11 9 9 9 9 9 8 7 7 6 6 6 5 4
3 3 4 5 6 6 6 7 8 7 8 10 13 12 10 10 9 9 9 7 9 10 10 9 9 9 8 8 9 11 10 9 9 8 8 9 9 7 7 5 5 6 4 4
4 4 4 2 3 6 8 7 9 12 12 10 12 13 12 10 9 9 9 9 10 11 10 9 9 9 8 7 9 10 9 8 7 7 7 7 8 9 12 10 12 12 10 7
5 5 7 6 6 8 9 10 11 13 14 13 12 13 13 11 10 10 11 11 11 10 9 9 10 9 8 7 9 9 8 7 6 6 6 6 6 7 7 8 11 12 11 11
10 10 9 6 7 9 11 12 13 14 13 13 12 12 12 12 12 12 11 10 10 11 10 9 10 9 7 7 8 8 8 8 7 5 5 5 5 5 6 6 5 5 6 9
7 8 10 11 11 10 10 12 14 13 13 12 11 12 13 13 13 11 10 10 11 12 11 10 10 9 7 8 9 9 8 6 6 6 6 6 5 6 6 6 5 4 4 5
12 13 13 13 12 11 11 12 13 12 12 12 12 12 13 13 13 11 10 10 12 11 9 9 9 7 7 8 9 8 8 11 9 7 7 6 6 6 6 6 5 5 4 3
13 12 13 13 12 11 10 10 11 12 12 13 13 13 13 14 13 11 10 10 11 10 9 9 8 7 8 8 8 7 7 8 11 9 7 7 6 6 6 6 5 5 4 4
10 11 12 13 13 12 12 11 12 12 12 12 13 13 13 13 12 10 9 10 11 11 9 7 7 8 9 9 8 7 7 7 7 7 7 7 6 6 6 6 6 6 4 6
12 12 12 12 12 12 11 11 10 10 11 13 13 13 12 12 11 10 10 11 11 9 7 7 11 10 9 9 9 7 8 8 8 7 7 8 7 6 6 6 6 5 5 5
13 12 12 13 12 11 12 11 11 12 11 13 14 13 12 11 11 11 11 9 5 3 4 7 9 8 8 8 10 7 8 8 8 7 7 7 6 6 6 6 6 5 5 5
13 13 13 12 12 11 12 12 13 13 11 12 13 13 12 10 9 9 9 7 4 4 6 9 7 6 6 7 9 7 7 7 7 6 6 5 5 5 5 5 5 5 4 4
11 12 13 14 14 12 11 11 12 13 12 12 12 12 12 10 9 8 7 4 3 6 6 6 5 8 9 9 7 7 7 7 6 5 5 5 5 5 5 5 5 4 4 4
11 12 13 13 13 12 12 11 12 12 12 11 11 11 10 8 6 7 5 2 4 8 6 5 8 12 12 8 6 6 6 6 5 5 4 4 4 4 4 5 4 4 4 3
12 12 11 11 13 13 12 10 10 10 11 10 9 10 9 8 6 4 5 6 8 9 6 7 11 12 11 6 6 6 6 5 5 5 4 4 4 4 4 4 4 3 3 3
11 12 12 13 12 10 11 11 12 11 10 9 9 9 7 6 6 5 5 6 8 8 6 7 11 10 7 5 6 5 5 4 5 5 4 4 4 4 4 3 3 3 3 3
11 10 9 9 8 8 8 9 9 8 8 8 7 6 6 6 7 6 5 6 7 7 5 4 5 6 5 5 5 5 5 5 5 5 4 4 4 4 3 3 3 3 2 2
10 9 8 8 7 7 8 8 8 7 7 8 7 6 6 6 6 6 6 5 5 5 4 4 4 4 4 4 4 4 4 4 4 4 3 3 3 3 3 3 2 3 3 3
Wind_Direction
154 168 127 115 319 24 140 178 174 189 171 199 191 176 156 125 112 128 134 132 138 149 151 151 150 164 170 170 171 170 167 175 183 179 174 170 167 165 160 163 169 164 165 167
36 29 50 22 339 291 260 167 139 127 149 206 142 105 93 85 95 108 130 139 134 136 146 150 155 166 169 168 166 156 160 173 172 167 165 164 165 159 155 156 152 147 155 158
356 358 45 335 295 77 84 57 136 147 170 137 109 102 105 101 99 98 100 114 132 138 144 157 165 167 166 165 160 160 162 166 160 156 161 165 158 149 154 154 146 147 156 153
108 58 211 246 325 93 96 69 93 115 122 124 123 110 86 80 100 95 90 103 109 112 108 104 122 140 142 143 145 149 154 157 156 154 155 148 142 147 155 149 148 155 159 159
114 151 249 276 9 76 104 68 86 121 121 116 117 89 55 50 71 90 97 103 102 103 107 102 98 110 118 120 125 129 140 139 138 141 146 141 139 143 147 141 141 146 141 142
127 156 214 247 295 215 105 90 61 125 136 144 125 105 149 43 74 77 79 88 94 95 100 96 89 96 105 107 107 115 125 122 124 132 136 138 140 132 122 122 126 122 112 108
152 179 233 285 300 24 132 201 173 134 144 139 122 146 143 92 76 82 88 86 90 88 86 85 85 95 97 96 102 109 111 108 102 104 108 111 110 107 108 107 104 101 93 79
153 176 225 311 33 118 184 155 118 118 120 113 113 114 113 101 88 85 84 84 89 92 84 79 84 92 92 87 86 91 93 92 87 85 91 92 92 91 93 101 96 89 85 73
171 191 204 77 103 104 124 125 127 126 129 128 126 121 117 106 95 84 84 85 85 92 87 79 82 92 95 86 84 88 89 88 86 81 75 76 84 88 86 90 97 93 87 80
92 76 75 69 64 49 71 106 126 132 135 133 127 122 118 110 99 89 84 86 87 85 82 74 72 80 88 88 89 90 89 86 85 86 80 71 70 74 82 85 94 97 95 90
117 127 81 54 55 69 75 89 100 101 111 123 124 122 116 108 100 95 90 82 85 87 83 77 72 72 74 82 91 91 88 86 83 82 86 80 71 63 73 66 96 110 107 105
187 185 139 112 76 93 98 99 110 110 101 104 114 114 109 102 96 95 91 85 83 80 79 75 73 70 67 74 88 93 91 86 86 88 87 90 91 74 53 64 70 76 83 90
142 121 114 112 90 89 98 102 106 108 108 108 104 106 105 101 96 93 88 85 85 83 80 76 75 69 63 68 80 88 94 94 92 92 95 98 100 102 89 55 53 60 66 71
122 115 104 102 102 98 101 102 101 98 98 103 106 105 103 98 93 90 87 86 86 82 75 72 71 61 51 65 77 83 86 87 91 93 94 96 98 98 99 98 79 48 42 57
111 109 119 116 105 101 103 106 104 101 98 95 100 104 104 101 97 92 88 84 80 75 68 65 63 50 43 61 71 74 79 82 85 85 84 86 88 88 88 89 90 80 59 45
114 112 118 118 117 116 113 113 112 108 103 101 102 105 106 105 101 94 87 83 80 73 67 66 61 46 48 62 70 71 74 80 83 83 80 78 80 83 84 85 83 79 71 57
128 133 133 130 129 125 121 119 119 116 113 112 111 109 106 104 100 93 85 82 82 74 65 63 55 46 52 61 73 76 75 75 76 77 77 80 83 84 85 87 87 81 67 62
136 138 136 134 134 128 121 118 120 120 119 118 114 109 106 105 104 99 93 85 77 65 53 53 55 56 55 58 67 71 76 75 74 77 78 76 77 76 79 82 82 79 63 61
125 127 127 126 125 125 124 123 122 118 118 117 114 110 108 106 103 98 89 82 77 68 41 45 57 58 56 57 69 74 77 77 74 73 75 75 73 69 74 76 76 75 72 66
122 122 123 122 120 121 122 121 118 115 115 115 113 109 106 104 101 96 88 79 72 82 69 61 60 56 52 56 69 76 79 80 79 76 72 71 71 69 70 73 73 71 69 67
122 121 121 120 115 114 118 119 117 115 112 113 115 116 113 108 103 101 96 83 46 59 66 64 61 54 53 65 73 78 80 80 80 79 78 76 75 73 71 71 72 72 70 66
116 117 118 117 113 110 111 112 112 112 111 111 112 113 112 108 104 95 88 100 91 79 71 60 60 62 67 72 74 77 80 81 78 76 76 76 77 76 74 74 73 71 68 66
115 115 115 116 116 113 107 108 111 113 114 115 117 118 117 116 115 112 99 80 89 84 79 70 70 69 71 71 74 76 78 79 78 78 79 78 78 80 79 77 75 76 73 63
112 114 114 114 112 110 108 109 107 107 106 105 107 114 116 111 97 94 114 105 98 92 83 76 73 73 72 70 69 71 76 78 76 74 76 75 76 79 80 80 78 73 68 59
109 111 112 114 114 116 115 113 108 104 102 99 97 97 100 109 116 114 107 103 103 95 84 76 76 76 71 71 71 74 76 80 86 85 78 79 79 80 79 80 81 76 67 55
108 110 110 109 112 115 116 115 114 111 109 104 96 93 94 96 100 100 98 97 96 97 93 84 80 77 75 74 72 77 78 78 77 77 79 80 80 81 82 82 80 78 76 73
105 105 104 102 101 106 110 112 114 112 111 112 105 99 99 98 98 98 97 95 94 94 95 92 89 86 85 81 76 76 75 73 76 80 80 80 81 84 87 85 85 94 93 86
Height
1442 1439 1439 1442 1443 1444 1450 1456 1465 1463 1462 1460 1457 1457 1457 1457 1458 1460 1462 1462 1463 1464 1465 1467 1469 1471 1472 1474 1476 1478 1480 1481 1483 1485 1488 1490 1493 1495 1498 1501 1503 1506 1508 1510
1445 1440 1439 1443 1442 1443 1445 1447 1452 1456 1461 1455 1455 1457 1458 1458 1459 1460 1462 1462 1462 1463 1465 1466 1468 1470 1472 1473 1475 1477 1479 1480 1482 1484 1487 1489 1492 1494 1497 1499 1501 1504 1506 1508
1457 1446 1445 1455 1448 1445 1447 1447 1449 1458 1459 1455 1458 1459 1459 1459 1459 1460 1461 1461 1462 1462 1464 1466 1467 1469 1471 1472 1474 1476 1478 1479 1481 1483 1485 1488 1491 1493 1495 1497 1500 1502 1504 1505
1459 1456 1467 1458 1442 1441 1446 1449 1447 1450 1453 1455 1457 1459 1459 1459 1460 1460 1461 1461 1462 1463 1464 1466 1468 1469 1471 1472 1473 1475 1477 1478 1480 1482 1484 1487 1489 1491 1493 1496 1498 1500 1502 1504
1465 1466 1462 1451 1445 1444 1449 1455 1450 1451 1454 1457 1458 1459 1461 1461 1460 1460 1461 1461 1462 1463 1464 1466 1467 1469 1470 1471 1473 1474 1476 1478 1479 1482 1484 1486 1488 1490 1493 1495 1496 1498 1500 1502
1462 1465 1468 1454 1444 1442 1446 1458 1452 1451 1453 1455 1456 1462 1463 1461 1460 1461 1461 1461 1463 1464 1465 1466 1468 1469 1470 1471 1472 1474 1476 1478 1479 1482 1484 1485 1487 1489 1492 1493 1495 1497 1499 1501
1460 1462 1457 1448 1444 1442 1456 1458 1452 1451 1452 1454 1455 1458 1461 1461 1461 1461 1462 1463 1463 1464 1465 1467 1468 1469 1470 1471 1473 1475 1477 1478 1480 1481 1484 1485 1487 1489 1491 1492 1494 1496 1498 1499
1459 1463 1461 1446 1444 1448 1451 1448 1449 1451 1452 1454 1455 1457 1459 1461 1462 1462 1463 1464 1464 1465 1466 1467 1468 1470 1471 1473 1475 1477 1478 1479 1480 1482 1484 1486 1487 1489 1490 1492 1494 1496 1497 1498
1453 1456 1449 1445 1445 1446 1446 1447 1449 1450 1452 1453 1455 1457 1460 1462 1463 1464 1465 1465 1466 1467 1468 1470 1471 1472 1472 1475 1477 1478 1479 1480 1482 1483 1485 1486 1488 1489 1491 1492 1494 1495 1497 1498
1449 1449 1448 1446 1446 1447 1447 1448 1449 1450 1451 1452 1455 1458 1460 1463 1465 1466 1467 1468 1469 1470 1471 1472 1474 1475 1476 1478 1479 1480 1481 1482 1484 1485 1487 1488 1490 1491 1492 1493 1495 1496 1497 1498
1448 1449 1448 1449 1448 1448 1449 1449 1450 1451 1452 1453 1455 1459 1462 1464 1466 1468 1470 1471 1471 1473 1474 1476 1477 1478 1479 1481 1482 1483 1484 1485 1486 1488 1489 1490 1492 1493 1494 1496 1497 1498 1498 1499
1447 1446 1448 1451 1451 1450 1450 1450 1451 1452 1455 1457 1458 1461 1464 1467 1469 1471 1473 1474 1475 1477 1478 1480 1481 1482 1483 1484 1485 1485 1486 1488 1489 1491 1492 1493 1494 1496 1497 1498 1499 1499 1500 1501
1442 1445 1447 1450 1452 1452 1452 1453 1454 1455 1457 1460 1462 1465 1467 1470 1473 1475 1477 1478 1479 1481 1483 1484 1485 1486 1487 1488 1489 1489 1490 1491 1493 1494 1495 1496 1497 1498 1499 1501 1501 1502 1502 1502
1442 1445 1449 1451 1453 1455 1456 1457 1459 1460 1462 1464 1466 1469 1471 1474 1477 1479 1481 1483 1484 1485 1486 1488 1488 1490 1491 1492 1492 1492 1493 1495 1496 1497 1499 1500 1500 1501 1502 1502 1503 1504 1504 1504
1445 1446 1449 1452 1455 1458 1460 1461 1463 1465 1467 1469 1472 1474 1476 1478 1481 1484 1486 1487 1488 1489 1490 1491 1491 1493 1494 1495 1495 1495 1496 1498 1499 1500 1501 1502 1503 1503 1504 1504 1505 1505 1505 1505
1446 1449 1452 1455 1458 1461 1463 1465 1466 1469 1471 1474 1476 1479 1481 1483 1486 1488 1490 1492 1492 1493 1494 1495 1496 1497 1498 1498 1498 1499 1499 1501 1501 1502 1503 1504 1504 1505 1505 1506 1506 1506 1506 1506
1447 1451 1454 1457 1460 1463 1466 1468 1470 1473 1475 1478 1480 1483 1485 1487 1490 1492 1494 1496 1497 1498 1499 1499 1500 1500 1500 1501 1501 1501 1502 1503 1504 1504 1505 1506 1506 1507 1507 1507 1507 1507 1507 1507
1448 1451 1455 1458 1461 1465 1468 1471 1474 1477 1479 1482 1485 1487 1489 1491 1493 1496 1498 1499 1500 1501 1502 1503 1504 1504 1504 1504 1504 1504 1505 1505 1506 1506 1507 1507 1508 1508 1508 1508 1508 1508 1508 1508
1452 1455 1458 1461 1465 1468 1471 1474 1477 1480 1483 1485 1488 1490 1493 1495 1497 1499 1501 1502 1503 1504 1505 1506 1506 1506 1506 1506 1507 1507 1507 1507 1508 1508 1509 1509 1509 1509 1509 1509 1509 1509 1509 1508
1455 1458 1461 1465 1468 1471 1474 1478 1480 1483 1486 1489 1491 1494 1496 1499 1501 1502 1504 1504 1506 1507 1508 1508 1509 1509 1509 1509 1509 1509 1509 1509 1510 1510 1510 1510 1510 1510 1510 1510 1510 1510 1509 1509
1457 1461 1464 1468 1471 1475 1478 1480 1483 1486 1489 1492 1494 1497 1499 1502 1504 1505 1506 1507 1509 1510 1510 1510 1510 1511 1511 1511 1511 1511 1511 1511 1511 1511 1511 1511 1511 1511 1511 1511 1510 1510 1510 1509
1460 1464 1467 1470 1473 1477 1481 1484 1486 1489 1492 1495 1498 1500 1502 1504 1506 1507 1509 1510 1511 1511 1512 1512 1512 1512 1513 1513 1512 1512 1512 1512 1512 1512 1512 1512 1512 1512 1511 1511 1511 1510 1510 1509
1463 1467 1470 1473 1476 1480 1484 1487 1490 1492 1495 1498 1500 1502 1504 1506 1508 1509 1510 1512 1512 1513 1513 1514 1514 1514 1514 1514 1514 1513 1513 1513 1513 1513 1513 1513 1512 1512 1512 1511 1511 1510 1510 1509
1466 1470 1474 1477 1480 1483 1486 1490 1493 1496 1498 1500 1503 1505 1507 1508 1510 1511 1512 1513 1514 1514 1515 1515 1515 1515 1515 1515 1515 1514 1514 1514 1514 1514 1513 1513 1513 1512 1512 1511 1511 1510 1510 1509
1470 1473 1477 1480 1483 1486 1490 1493 1496 1499 1501 1503 1506 1508 1509 1510 1511 1512 1514 1515 1515 1516 1516 1516 1516 1516 1516 1516 1516 1515 1515 1515 1515 1515 1514 1514 1513 1513 1512 1512 1511 1510 1509 1508
1473 1477 1480 1483 1486 1490 1493 1496 1498 1501 1503 1506 1508 1510 1511 1512 1513 1514 1515 1516 1517 1517 1517 1517 1518 1517 1517 1517 1517 1517 1516 1516 1516 1515 1515 1514 1514 1513 1512 1512 1511 1510 1509 1507
1477 1481 1484 1488 1491 1494 1496 1498 1501 1503 1505 1507 1509 1511 1513 1514 1515 1516 1516 1517 1518 1518 1518 1519 1519 1519 1519 1519 1518 1518 1518 1517 1517 1516 1515 1515 1514 1513 1512 1512 1511 1510 1508 1507